Location: Unspecified
(40.7945°N, 111.1337°W)
Time: 05:40:17
(UTC-06:00)

Altair - Pass Details

Date: 29 June 2019
Orbit: 1501 x 1683 km, 47.2° (Epoch: 19 July)

Event Time Altitude Azimuth Distance (km) Brightness Sun altitude
Rises 04:12:35 0° 286° (WNW) 4,878 9.9 -15.4°
Reaches altitude 10° 04:18:37 10° 258° (WSW) 3,916 9.2 -14.7°
Enters shadow 04:19:44 11° 252° (WSW) 3,829 9.1 -14.6°
